map of MCG home
MCG - Airport
Location
City:  McGrath, Alaska, United States
Name:McGrath Airport
ICAO:PAMC
IATA:MCG
FAA LID:MCG

Details
Type:Airport (Airfield)
Use:Public/Civil
Latitude:6257'10"N (62.952784)
Longitude:15536'25"W (-155.607047)
Datum:WGS 1984
Elevation:342 ft (104 m)
Variation:14.09E (WMM2015 magnetic declination)
-0.36 annual change
Runways:2
Longest:5936 × 100 ft (1809 × 30.5 m), paved

Time
Time Zone:UTC-9 (DST-8)
Local Time:

Weather
METAR:PAMC 211853Z 00000KT 10SM BKN005 OVC017 13/13 A2969 RMK AO2 RAE27 SLP057 T01330128 PNO $
TAF:PAMC 211734Z 2118/2218 27004KT 4SM -RA BR BKN007 OVC015
FM220600 21003KT 6SM -RA BR OVC015

Related Locations
Nearby:
Farthest:NZSP: 10554 mi / 16985 km
Amundsen-Scott South Pole Station [Jack F. Paulus Skiway], AQ

Find:

   beyond  
but within

Other Information
Maps:
NOTAMs:
Links:
Sources:

  
  • flag of United States
  • flag of Alaska
  

Sectional Chart

Flight Planning
at skyvector.com

Satellite Image

Google Maps Satellite view

 

Copyright © 2004-2018 Karl L. Swartz. All rights reserved.
The Great Circle Mapper name and logo are trademarks of the Great Circle Mapper.
All other trademarks mentioned herein belong to their respective owners.
Please see credits for attibutions and further copyright information.

  Follow gcmap on Facebook Follow gcmap on Twitter Follow gcmap on Google+ GCmap on LinkedIn

hCard Microformat

Geo Microformat